Location: Marengo
(51.4813°N, 109.7825°W)
Time: 23:38:51
(UTC+00:00)

X-37B - Pass Details

Date: 04 February 2022
Orbit: 329 x 342 km, 45.0° (Epoch: 18 May)

Event Time Altitude Azimuth Distance (km) Brightness Sun altitude
Rises 01:57:36 0° 258° (WSW) 2,122 6.1 -16.5°
Reaches altitude 10° 01:59:57 10° 240° (WSW) 1,280 4.2 -16.8°
Maximum altitude 02:02:05 19° 191° (S) 882 2.5 -17.1°
Enters shadow 02:02:53 17° 168° (SSE) 946 2.4 -17.3°
